Weather History for Los Alamitos, CA

Change the Weather History Date:

Sunday, December 2, 2012

  Actual Average Record
Temperature  
Mean Temperature 63 °F -  
Max Temperature 66 °F 67 °F 80 °F (2006)
Min Temperature 60 °F 50 °F 39 °F (2004)
Degree Days  
Heating Degree Days 2    
Growing Degree Days 13 (Base 50)    
Moisture  
Dew Point 62 °F    
Average Humidity 100    
Maximum Humidity 100    
Minimum Humidity 98    
Precipitation  
Precipitation 0.08 in - - ()
Sea Level Pressure  
Sea Level Pressure 30.11 in    
Wind  
Wind Speed 5 mph (South)    
Max Wind Speed 9 mph    
Max Gust Speed -    
Visibility 8 miles    
Events Rain    
Averages and records for this station are not official NWS values.
T = Trace of Precipitation, MM = Missing Value Source: NWS Daily Summary

Daily Weather History Graph

Daily Weather History Graph

Search for Another Location

Airport:

Trip Planner

Search our weather history database for the weather conditions in past years. The results will help you decide how hot, cold, wet, or windy it might be!

Date:

Astronomy

Dec. 02, 2012 Rise Set
Actual Time 6:40 AM PST 4:43 PM PST
Civil Twilight 6:12 AM PST 5:10 PM PST
Nautical Twilight 5:42 AM PST 5:41 PM PST
Astronomical Twilight 5:11 AM PST 6:11 PM PST
Moon 8:30 PM PST (12/2) 9:36 AM PST (12/2)
Length of Visible Light 10h 57m
Length of Day
10h 03m
Waning Gibbous, 85% of the Moon is Illuminated
Dec 2
Waning Gibbous
Dec 6
Last Quarter
Dec 13
New
Dec 19
First Quarter
Dec 28
Full

Hourly Weather History & Observations

Time (PST) Temp. Dew Point Humidity Pressure Visibility Wind Dir Wind Speed Gust Speed Precip Events Conditions
12:58 AM 61.2 °F 61.2 °F 100% 30.12 in 10.0 mi WSW 2.3 mph - N/A   Overcast
1:58 AM 61.5 °F 61.5 °F 100% 30.12 in 10.0 mi SSW 3.5 mph - N/A   Overcast
2:58 AM 61.2 °F 61.2 °F 100% 30.12 in 10.0 mi SW 4.6 mph - N/A   Overcast
3:58 AM 60.8 °F 60.8 °F 100% 30.11 in 10.0 mi SW 4.6 mph - N/A   Overcast
4:58 AM 61.0 °F 61.0 °F 100% 30.11 in 10.0 mi Calm Calm - N/A   Overcast
5:58 AM 61.2 °F 61.2 °F 100% 30.12 in 10.0 mi SSE 2.3 mph - N/A   Overcast
6:58 AM 60.8 °F 60.8 °F 100% 30.14 in 10.0 mi SSW 3.5 mph - N/A   Overcast
7:42 AM 60.8 °F 60.8 °F 100% 30.13 in 10.0 mi SW 5.8 mph - N/A   Overcast
7:58 AM 60.8 °F 60.8 °F 100% 30.14 in 10.0 mi West 4.6 mph - N/A   Mostly Cloudy
8:48 AM 62.6 °F 62.6 °F 100% 30.14 in 10.0 mi West 2.3 mph - N/A   Mostly Cloudy
8:58 AM 62.2 °F 62.2 °F 100% 30.16 in 10.0 mi Variable 1.2 mph - N/A   Mostly Cloudy
9:33 AM 62.6 °F 62.6 °F 100% 30.15 in 10.0 mi South 3.5 mph - N/A   Overcast
9:58 AM 63.7 °F 63.7 °F 100% 30.16 in 10.0 mi Variable 2.3 mph - N/A   Mostly Cloudy
10:58 AM 65.5 °F 65.5 °F 100% 30.15 in 10.0 mi Variable 2.3 mph - N/A   Mostly Cloudy
11:13 AM 66.2 °F 66.2 °F 100% 30.13 in 10.0 mi North 1.2 mph - N/A   Mostly Cloudy
11:43 AM 66.2 °F 66.2 °F 100% 30.12 in 10.0 mi Variable 5.8 mph - N/A   Mostly Cloudy
11:58 AM 66.4 °F 65.7 °F 98% 30.13 in 10.0 mi South 6.9 mph - N/A   Mostly Cloudy
12:08 PM 66.2 °F 66.2 °F 100% 30.12 in 10.0 mi SSW 9.2 mph - N/A   Overcast
12:58 PM 64.4 °F 64.4 °F 100% 30.11 in 7.0 mi SW 8.1 mph - 0.00 in Rain Light Rain Showers
1:14 PM 62.6 °F 62.6 °F 100% 30.10 in 2.5 mi SSW 8.1 mph - N/A Rain Light Rain
1:15 PM 62.6 °F 62.6 °F 100% 30.10 in 2.0 mi SSW 6.9 mph - N/A Rain Light Rain
1:20 PM 62.6 °F 62.6 °F 100% 30.10 in 2.5 mi SSW 8.1 mph - N/A Rain Light Rain
1:42 PM 62.6 °F 62.6 °F 100% 30.09 in 2.5 mi SSW 5.8 mph - N/A Rain Light Rain
1:58 PM 61.7 °F 61.7 °F 100% 30.09 in 2.5 mi South 6.9 mph - 0.00 in Rain Light Rain
2:14 PM 60.8 °F 60.8 °F 100% 30.07 in 5.0 mi South 9.2 mph - N/A Rain Light Rain
2:21 PM 60.8 °F 60.8 °F 100% 30.08 in 7.0 mi South 8.1 mph - N/A   Overcast
2:31 PM 60.8 °F 60.8 °F 100% 30.08 in 7.0 mi SSW 9.2 mph - N/A   Overcast
2:41 PM 60.8 °F 60.8 °F 100% 30.08 in 5.0 mi SSW 9.2 mph - N/A Rain Light Rain
2:53 PM 60.8 °F 60.8 °F 100% 30.08 in 5.0 mi South 9.2 mph - N/A Rain Light Rain
2:58 PM 61.5 °F 61.5 °F 100% 30.09 in 6.0 mi South 8.1 mph - 0.00 in Rain Light Rain
3:12 PM 60.8 °F 60.8 °F 100% 30.09 in 3.0 mi South 8.1 mph - N/A Rain Light Rain
3:24 PM 60.8 °F 60.8 °F 100% 30.09 in 2.5 mi South 8.1 mph - N/A Rain Light Rain
3:40 PM 60.8 °F 60.8 °F 100% 30.10 in 2.5 mi South 8.1 mph - N/A Rain Light Rain
3:45 PM 60.8 °F 60.8 °F 100% 30.10 in 6.0 mi South 8.1 mph - N/A Rain Light Rain
3:52 PM 60.8 °F 60.8 °F 100% 30.10 in 10.0 mi South 6.9 mph - N/A   Overcast
3:57 PM 60.8 °F 60.8 °F 100% 30.10 in 10.0 mi South 8.1 mph - N/A   Overcast
3:58 PM 60.8 °F 60.8 °F 100% 30.11 in 10.0 mi South 8.1 mph - 0.01 in   Overcast
4:03 PM 60.8 °F 60.8 °F 100% 30.10 in 10.0 mi SSE 5.8 mph - N/A   Overcast
4:13 PM 60.8 °F 60.8 °F 100% 30.10 in 10.0 mi SSE 4.6 mph - N/A   Overcast
4:18 PM 60.8 °F 60.8 °F 100% 30.10 in 10.0 mi SE 5.8 mph - N/A   Overcast
4:53 PM 60.8 °F 60.8 °F 100% 30.10 in 10.0 mi SE 5.8 mph - N/A   Mostly Cloudy
4:58 PM 61.2 °F 61.2 °F 100% 30.10 in 10.0 mi SE 4.6 mph - N/A   Mostly Cloudy
5:58 PM 61.3 °F 61.3 °F 100% 30.11 in 10.0 mi SSE 4.6 mph - N/A   Mostly Cloudy
6:03 PM 60.8 °F 60.8 °F 100% 30.10 in 10.0 mi South 2.3 mph - N/A   Mostly Cloudy
6:08 PM 60.8 °F 60.8 °F 100% 30.11 in 10.0 mi SSE 2.3 mph - N/A   Mostly Cloudy
6:33 PM 60.8 °F 60.8 °F 100% 30.10 in 10.0 mi South 4.6 mph - N/A   Scattered Clouds
6:58 PM 61.7 °F 61.7 °F 100% 30.11 in 10.0 mi South 3.5 mph - N/A   Overcast
7:33 PM 62.6 °F 62.6 °F 100% 30.11 in 10.0 mi Calm Calm - N/A   Overcast
7:58 PM 62.1 °F 62.1 °F 100% 30.12 in 10.0 mi SE 2.3 mph - N/A   Overcast
8:08 PM 62.6 °F 62.6 °F 100% 30.11 in 10.0 mi SE 3.5 mph - N/A   Overcast
8:14 PM 62.6 °F 62.6 °F 100% 30.11 in 10.0 mi SE 3.5 mph - N/A   Overcast
8:24 PM 62.6 °F 62.6 °F 100% 30.11 in 10.0 mi SSE 4.6 mph - N/A   Overcast
8:34 PM 62.6 °F 62.6 °F 100% 30.11 in 10.0 mi SSE 4.6 mph - N/A   Overcast
8:39 PM 62.6 °F 62.6 °F 100% 30.11 in 10.0 mi SSE 4.6 mph - N/A   Overcast
8:42 PM 62.6 °F 62.6 °F 100% 30.11 in 9.0 mi SSE 4.6 mph - N/A Rain Light Rain
8:52 PM 62.6 °F 62.6 °F 100% 30.10 in 9.0 mi South 5.8 mph - N/A   Overcast
8:58 PM 62.2 °F 62.2 °F 100% 30.11 in 10.0 mi SSE 4.6 mph - 0.00 in   Overcast
9:04 PM 62.6 °F 62.6 °F 100% 30.10 in 10.0 mi South 5.8 mph - N/A   Light Drizzle
9:14 PM 62.6 °F 62.6 °F 100% 30.11 in 10.0 mi South 5.8 mph - N/A   Overcast
9:19 PM 62.6 °F 62.6 °F 100% 30.10 in 10.0 mi South 5.8 mph - N/A   Overcast
9:29 PM 62.6 °F 62.6 °F 100% 30.11 in 10.0 mi South 4.6 mph - N/A   Overcast
9:34 PM 62.6 °F 62.6 °F 100% 30.11 in 9.0 mi South 4.6 mph - N/A   Overcast
9:51 PM 62.6 °F 62.6 °F 100% 30.11 in 9.0 mi South 5.8 mph - N/A   Overcast
9:57 PM 62.6 °F 62.6 °F 100% 30.11 in 5.0 mi SSE 5.8 mph - N/A Rain Light Rain
9:58 PM 62.6 °F 62.6 °F 100% 30.12 in 5.0 mi SSE 6.9 mph - 0.01 in Rain Light Rain
10:13 PM 62.6 °F 62.6 °F 100% 30.11 in 2.5 mi SSE 1.2 mph - N/A Rain Light Rain
10:18 PM 62.6 °F 62.6 °F 100% 30.11 in 2.0 mi SSE 2.3 mph - N/A Rain Rain
10:23 PM 62.6 °F 62.6 °F 100% 30.11 in 2.0 mi SE 4.6 mph - N/A Rain Rain
10:28 PM 62.6 °F 62.6 °F 100% 30.11 in 2.5 mi ESE 4.6 mph - N/A Rain Light Rain
10:30 PM 62.6 °F 62.6 °F 100% 30.11 in 3.0 mi ESE 4.6 mph - N/A   Overcast
10:37 PM 62.6 °F 62.6 °F 100% 30.12 in 4.0 mi SSE 5.8 mph - N/A Rain Light Rain
10:47 PM 62.6 °F 62.6 °F 100% 30.11 in 8.0 mi South 4.6 mph - N/A Rain Light Rain
10:51 PM 62.6 °F 62.6 °F 100% 30.11 in 10.0 mi South 4.6 mph - N/A   Overcast
10:58 PM 61.7 °F 61.7 °F 100% 30.12 in 10.0 mi SSE 6.9 mph - 0.05 in   Overcast
11:08 PM 62.6 °F 62.6 °F 100% 30.11 in 10.0 mi SSE 5.8 mph - N/A   Overcast
11:13 PM 62.6 °F 62.6 °F 100% 30.11 in 10.0 mi SSE 5.8 mph - N/A   Overcast
11:33 PM 62.6 °F 62.6 °F 100% 30.11 in 10.0 mi South 6.9 mph - N/A   Overcast
11:58 PM 61.9 °F 61.9 °F 100% 30.12 in 3.0 mi SSE 5.8 mph - 0.01 in   Overcast